IU3OVK-13 Weather Reports


time (UTC)temp
F
wind
direction
speed
knots
gust
knots
rain 1hr
in
rain 24hr
in
rain mn
in
humidity
%
barometer
mb
20260502210636 56 0.0 0.0 0.00 0.00 0.00 99 1015.5
20260502205615 57 0.0 0.0 0.00 0.00 0.00 99 1015.6
20260502204555 59 0.0 0.0 0.00 0.00 0.00 99 1015.1
20260502203535 59 0.0 0.0 0.00 0.00 0.00 99 1015.1
20260502201456 60 0.0 0.0 0.00 0.00 0.00 99 1015.6
20260502200435 61 0.0 0.0 0.00 0.00 0.00 99 1014.9
20260502195414 61 0.0 0.0 0.00 0.00 0.00 99 1015.4
20260502194354 62 0.0 0.0 0.00 0.00 0.00 99 1015.3
20260502193334 62 0.0 0.0 0.00 0.00 0.00 99 1015.1
20260502192314 63 0.0 0.0 0.00 0.00 0.00 99 1015.0
20260502191254 63 0.0 0.0 0.00 0.00 0.00 99 1014.5
20260502190234 63 0.0 0.0 0.00 0.00 0.00 99 1014.7
20260502185213 64 0.0 0.0 0.00 0.00 0.00 99 1014.6
20260502184153 65 0.0 0.0 0.00 0.00 0.00 99 1014.6
20260502183133 66 0.0 0.0 0.00 0.00 0.00 99 1014.4
20260502182113 66 0.0 0.0 0.00 0.00 0.00 99 1014.2
20260502181053 67 0.0 0.0 0.00 0.00 0.00 97 1013.9
20260502162731 72 0.0 0.0 0.00 0.00 0.00 79 1013.2
20260502160651 73 0.0 0.0 0.00 0.00 0.00 79 1013.4
20260502121928 74 0.0 0.0 0.00 0.00 0.00 73 1015.4
20260502120909 73 0.0 0.0 0.00 0.00 0.00 73 1015.6
20260502115847 71 0.0 0.0 0.00 0.00 0.00 77 1015.9
20260502113807 72 0.0 0.0 0.00 0.00 0.00 77 1016.0
20260502112747 69 0.0 0.0 0.00 0.00 0.00 77 1016.4
20260502111727 74 0.0 0.0 0.00 0.00 0.00 73 1016.4
20260502110708 71 0.0 0.0 0.00 0.00 0.00 72 1017.1
20260502105646 74 0.0 0.0 0.00 0.00 0.00 70 1017.4
20260502103606 75 0.0 0.0 0.00 0.00 0.00 69 1018.0
20260502102546 76 0.0 0.0 0.00 0.00 0.00 67 1018.4
20260502091324 105 0.0 0.0 0.00 0.00 0.00 53 1016.2
20260502090303 105 0.0 0.0 0.00 0.00 0.00 53 1016.2
20260502065856 85 0.0 0.0 0.00 0.00 0.00 73 1016.0
20260502063815 79 0.0 0.0 0.00 0.00 0.00 80 1018.3
20260502062755 79 0.0 0.0 0.00 0.00 0.00 82 1016.8
20260502061735 79 0.0 0.0 0.00 0.00 0.00 86 1009.6